Location: ??????
(41.3794°N, 22.5014°E)
Time: 07:22:09
(UTC+00:00)

Cosmos 2369 Rocket - Pass Details

Date: 30 November 2020
Orbit: 829 x 852 km, 71.0° (Epoch: 17 January)

Event Time Altitude Azimuth Distance (km) Brightness Sun altitude
Rises 16:24:32 0° 339° (NNW) 3,421 5.4 -15.2°
Reaches altitude 10° 16:27:02 10° 343° (NNW) 2,479 4.7 -15.7°
Maximum altitude 16:32:40 60° 63° (ENE) 960 2.2 -16.7°
Drops below altitude 10° 16:38:13 10° 143° (SE) 2,448 4.4 -17.7°
Sets 16:40:41 0° 147° (SSE) 3,375 5.1 -18.1°
